[[{"header":{"parameterUnit":"m.s-1","parameterCategory":1,"la1":30.2991,"la2":30.254,"lo1":-89.0895,"lo2":-89.0444,"dy":0.0017,"dx":0.0017,"nx":28,"ny":28,"refTime":"2024-04-13T09:00:00:Z","depth":0,"parameterNumber":2,"parameterNumberName":"U-component_of_WINDS"},"data":[0,0,0,0,0,0,0,0,0,0,0,0,0,0,0,0,0,0,0,0,0,0,0,0,0,0,0,0,0,0,0,0,0,0,0,0,0,0,0,0,0,0,0,0,0,0,0,0,0,0,0,0,0,0,0,0,0,0,-1.1767,-1.1767,0,-1.1809,-1.181,-1.181,-1.1777,-1.1776,-1.1774,-1.1773,-1.182,-1.1823,-1.1825,0,0,0,0,0,0,0,0,0,0,0,0,0,-1.1661,-1.1663,-1.1767,-1.1767,-1.1768,-1.1809,-1.181,-1.1811,-1.1777,-1.1776,-1.1774,-1.1772,-1.1819,-1.1822,-1.1826,0,0,0,0,0,0,0,0,0,0,0,0,0,-1.1705,-1.1663,-1.1767,-1.1756,-1.1756,-1.1809,-1.181,-1.1811,-1.1778,-1.1776,-1.1773,-1.1771,-1.1818,-1.1822,-1.1826,-1.1893,0,0,-1.1838,-1.184,0,0,0,0,0,0,0,0,-1.1703,-1.1709,-1.1757,-1.1757,-1.1756,-1.1786,-1.179,-1.1839,-1.1778,-1.1769,-1.1773,-1.177,-1.1811,-1.1815,-1.1828,-1.1895,-1.1898,-1.1838,-1.1841,-1.1842,-1.1843,0,0,0,0,0,0,0,-1.17,-1.1707,-1.1784,-1.1758,-1.1757,-1.1751,-1.1755,-1.1799,-1.1802,-1.177,-1.1768,-1.1773,-1.181,-1.1824,-1.1829,-1.1898,-1.1838,-1.1842,-1.1844,-1.1846,-1.2025,-1.2027,0,0,0,0,0,0,-1.1697,-1.1705,-1.1782,-1.1785,-1.1724,-1.1754,-1.1759,-1.1779,-1.1801,-1.1802,-1.1775,-1.1771,-1.1819,-1.1824,-1.183,-1.1911,-1.1842,-1.1846,-1.1848,-1.2022,-1.2025,-1.2028,0,0,0,0,0,0,-1.1695,-1.1704,-1.1781,-1.1744,-1.1753,-1.1758,-1.1781,-1.1781,-1.1794,-1.1805,-1.1805,-1.1788,-1.1817,-1.1825,-1.1878,-1.1912,-1.1848,-1.1851,-1.2019,-1.2023,-1.2026,-1.2073,0,0,0,0,0,0,-1.1692,-1.1704,-1.1728,-1.1745,-1.1756,-1.1826,-1.1783,-1.1783,-1.1801,-1.1797,-1.1818,-1.1819,-1.1816,-1.1872,-1.1882,-1.1917,-1.1854,-1.2016,-1.2021,-1.2025,-1.2069,-1.2078,-1.2086,0,0,0,0,0,-1.1688,-1.174,-1.173,-1.1739,-1.1786,-1.1828,-1.1834,-1.1829,-1.1804,-1.1829,-1.1836,-1.1819,-1.1907,-1.1878,-1.1888,-1.1925,-1.2014,-1.202,-1.2025,-1.2065,-1.2076,-1.2086,0,0,0,0,0,0,-1.1728,-1.1742,-1.1731,-1.1789,-1.1808,-1.1822,-1.1854,-1.1841,-1.1868,-1.1863,-1.1856,-1.1861,-1.1917,-1.1926,-1.1893,-1.1992,-1.1957,-1.1965,-1.1983,-1.1994,-1.2003,-1.1999,-1.1858,0,0,0,0,0,-1.1744,-1.1776,-1.1787,-1.1837,-1.1847,-1.1849,-1.1867,-1.1861,-1.1881,-1.1889,-1.1899,-1.192,-1.1952,-1.1974,-1.2004,-1.207,-1.2075,-1.21,-1.2109,-1.2116,-1.2123,-1.2159,-1.2171,-1.2046,-1.2046,-1.2045,0,0,-1.1776,-1.1788,-1.1808,-1.1846,-1.1859,-1.1894,-1.1856,-1.1894,-1.192,-1.1895,-1.1945,-1.1954,-1.1977,-1.2037,-1.2063,-1.2046,-1.2159,-1.2123,-1.2129,-1.2132,-1.2166,-1.2178,-1.2189,-1.2049,-1.2049,-1.2048,0,0,-1.1853,-1.1865,-1.1908,-1.1923,-1.1944,-1.1945,-1.1956,-1.1973,-1.1977,-1.2028,-1.201,-1.2042,-1.2098,-1.2115,-1.2131,-1.2216,-1.2201,-1.2226,-1.2271,-1.2307,-1.2317,-1.2325,-1.2356,-1.2367,-1.2233,-1.2233,-1.2233,0,-1.1891,-1.1941,-1.1933,-1.1972,-1.1989,-1.1968,-1.2013,-1.2028,-1.2058,-1.2072,-1.2052,-1.2122,-1.2136,-1.22,-1.222,-1.2234,-1.2247,-1.2223,-1.2316,-1.2324,-1.2333,-1.2362,-1.2373,-1.2236,-1.2235,-1.2235,-1.2235,0,-1.1987,-1.2022,-1.2055,-1.2084,-1.2105,-1.2147,-1.2147,-1.217,-1.2163,-1.2167,-1.2219,-1.2235,-1.2269,-1.2284,-1.2277,-1.2347,-1.2336,-1.2316,-1.2281,-1.2348,-1.2375,-1.2386,-1.224,-1.2239,-1.2238,-1.2237,0,0,-1.2089,-1.2113,-1.2126,-1.2139,-1.2161,-1.2189,-1.2231,-1.2263,-1.2283,-1.2305,-1.2341,-1.2389,-1.2371,-1.239,-1.2385,-1.2416,-1.2484,-1.2393,-1.2393,-1.2409,-1.2563,-1.2578,-1.2591,-1.2474,-1.2476,-1.2478,-1.2561,0,-1.2167,-1.2238,-1.2233,-1.2301,-1.2334,-1.2315,-1.2352,-1.237,-1.2375,-1.2405,-1.2412,-1.2446,-1.242,-1.2431,-1.2461,-1.2469,-1.2514,-1.2463,-1.2509,-1.251,-1.2503,-1.2605,-1.262,-1.2698,-1.2572,-1.2574,-1.2575,0,-1.2267,-1.2292,-1.2363,-1.2381,-1.2394,-1.2427,-1.2457,-1.2485,-1.2507,-1.2508,-1.2529,-1.252,-1.2564,-1.2528,-1.2589,-1.2555,-1.2573,-1.258,-1.2583,-1.2587,-1.2546,-1.2612,-1.2723,-1.2734,-1.2592,-1.259,-1.2589,0,-1.2335,-1.2386,-1.2435,-1.2447,-1.2469,-1.2493,-1.2504,-1.2523,-1.2543,-1.2569,-1.2582,-1.2614,-1.2632,-1.2657,-1.2657,-1.2631,-1.272,-1.2684,-1.2724,-1.2724,-1.2743,-1.2742,-1.2858,-1.2755,-1.2755,-1.2755,-1.2755,0,-1.2422,-1.2466,-1.2466,-1.2496,-1.2546,-1.2541,-1.259,-1.2599,-1.2616,-1.2649,-1.2635,-1.2666,-1.2665,-1.2697,-1.2698,-1.2749,-1.2757,-1.2761,-1.2761,-1.2762,-1.2762,-1.2774,-1.2769,-1.2758,-1.2757,-1.2757,-1.2756,0,-1.2506,-1.2507,-1.2559,-1.2576,-1.2582,-1.2618,-1.2633,-1.2662,-1.2667,-1.2709,-1.2718,-1.2726,-1.2763,-1.2766,-1.281,-1.281,-1.2873,-1.2866,-1.2865,-1.2864,-1.2904,-1.29,-1.3033,-1.305,-1.2936,-1.2937,-1.2938,0,-1.2561,-1.2595,-1.2615,-1.2635,-1.2647,-1.268,-1.2701,-1.2697,-1.2719,-1.2747,-1.2774,-1.281,-1.2838,-1.2899,-1.291,-1.2943,-1.2938,-1.2982,-1.2943,-1.2944,-1.2939,-1.2937,-1.2941,-1.299,-1.2991,-1.2992,-1.2993,0,-1.266,-1.2659,-1.2688,-1.2718,-1.2742,-1.2766,-1.2788,-1.2806,-1.2805,-1.2831,-1.2869,-1.2891,-1.2935,-1.2972,-1.3005,-1.3018,-1.3006,-1.3005,-1.3016,-1.3018,-1.3016,-1.3018,-1.2886,-1.3002,-1.3001,-1.3,-1.3,-1.2999,-1.2731,-1.276,-1.2779,-1.2813,-1.2829,-1.285,-1.2879,-1.2887,-1.2918,-1.2953,-1.295,-1.2992,-1.3014,-1.3057,-1.3073,-1.3106,-1.3092,-1.3108,-1.3112,-1.3116,-1.312,-1.3011,-1.3113,-1.3112,-1.3112,-1.3112,-1.3112,0,-1.2829,-1.2841,-1.2871,-1.2902,-1.2929,-1.2914,-1.2939,-1.2962,-1.2999,-1.302,-1.3048,-1.3093,-1.3128,-1.3141,-1.3177,-1.3201,-1.3197,-1.3211,-1.3209,-1.3212,-1.3131,-1.3118,-1.3214,-1.3214,-1.3214,-1.3214,-1.3214,-1.3214,-1.2883,-1.2932,-1.2934,-1.2992,-1.3003,-1.3043,-1.3058,-1.3079,-1.3095,-1.3145,-1.3174,-1.3182,-1.3201,-1.3237,-1.327,-1.3273,-1.3287,-1.3303,-1.3304,-1.3228,-1.3218,-1.3208,-1.3196,-1.3306,-1.3306,-1.3382,-1.3383,-1.3384]},{"header":{"parameterUnit":"m.s-1","parameterCategory":1,"la1":30.2991,"la2":30.254,"lo1":-89.0895,"lo2":-89.0444,"dy":0.0017,"dx":0.0017,"nx":28,"ny":28,"refTime":"2024-04-13T09:00:00:Z","depth":0,"parameterNumber":3,"parameterNumberName":"V-component_of_WINDS"},"data":[0,0,0,0,0,0,0,0,0,0,0,0,0,0,0,0,0,0,0,0,0,0,0,0,0,0,0,0,0,0,0,0,0,0,0,0,0,0,0,0,0,0,0,0,0,0,0,0,0,0,0,0,0,0,0,0,0,0,2.4215,2.4215,0,2.4198,2.4197,2.4197,2.4195,2.4196,2.4196,2.4196,2.4174,2.4174,2.4173,0,0,0,0,0,0,0,0,0,0,0,0,0,2.4244,2.4243,2.4215,2.4215,2.4215,2.4198,2.4197,2.4197,2.4195,2.4196,2.4196,2.4196,2.4175,2.4174,2.4173,0,0,0,0,0,0,0,0,0,0,0,0,0,2.4229,2.4243,2.4215,2.4212,2.4211,2.4198,2.4197,2.4197,2.4195,2.4196,2.4196,2.4196,2.4175,2.4174,2.4173,2.416,0,0,2.4169,2.4169,0,0,0,0,0,0,0,0,2.423,2.4228,2.4213,2.4212,2.4211,2.4199,2.42,2.4185,2.4195,2.4201,2.4196,2.4196,2.4182,2.418,2.4176,2.4159,2.4158,2.4169,2.4168,2.4168,2.4168,0,0,0,0,0,0,0,2.4231,2.4229,2.4208,2.4212,2.4212,2.421,2.4208,2.4197,2.419,2.4201,2.4201,2.4199,2.4182,2.4177,2.4176,2.4158,2.4169,2.4168,2.4167,2.4167,2.413,2.4129,0,0,0,0,0,0,2.4233,2.423,2.4209,2.4208,2.4222,2.4209,2.4208,2.4203,2.419,2.4189,2.4199,2.4199,2.4179,2.4177,2.4175,2.416,2.4168,2.4167,2.4166,2.413,2.413,2.4129,0,0,0,0,0,0,2.4234,2.4231,2.4209,2.4219,2.4216,2.4209,2.4203,2.4202,2.4198,2.4189,2.4187,2.4196,2.4179,2.4177,2.4164,2.4159,2.4166,2.4165,2.413,2.413,2.4129,2.4129,0,0,0,0,0,0,2.4235,2.4232,2.4227,2.4219,2.4215,2.42,2.4203,2.4202,2.4196,2.4197,2.4185,2.4184,2.4179,2.4166,2.4163,2.4158,2.4164,2.4131,2.413,2.4129,2.4129,2.4129,2.4128,0,0,0,0,0,2.4236,2.4227,2.4227,2.4225,2.421,2.4199,2.4197,2.4194,2.4196,2.4191,2.4186,2.4184,2.416,2.4165,2.4161,2.4155,2.4131,2.413,2.413,2.413,2.4129,2.4128,0,0,0,0,0,0,2.4234,2.4226,2.4226,2.4214,2.4208,2.4199,2.4193,2.4192,2.4184,2.4184,2.4179,2.4176,2.4164,2.4158,2.4164,2.4143,2.4146,2.4144,2.4147,2.4146,2.4145,2.4146,2.4163,0,0,0,0,0,2.4232,2.4225,2.4218,2.4209,2.4206,2.42,2.4195,2.4193,2.4185,2.4182,2.4175,2.4167,2.4158,2.4151,2.4142,2.4129,2.4126,2.4123,2.4122,2.4122,2.4121,2.4113,2.4112,2.4127,2.4127,2.4127,0,0,2.4229,2.4223,2.4219,2.4208,2.4203,2.4195,2.4198,2.4189,2.4183,2.418,2.4169,2.4163,2.4154,2.4141,2.4135,2.4136,2.4116,2.4121,2.4121,2.4119,2.4112,2.4111,2.411,2.4126,2.4126,2.4127,0,0,2.4218,2.4214,2.4205,2.42,2.4193,2.4189,2.4187,2.4179,2.4176,2.4164,2.4163,2.4155,2.4139,2.4132,2.4127,2.4115,2.4113,2.4112,2.4107,2.41,2.4099,2.4098,2.4094,2.4092,2.411,2.411,2.411,0,2.4214,2.4203,2.4201,2.4193,2.4188,2.4187,2.4178,2.4173,2.4162,2.4159,2.416,2.4141,2.4134,2.412,2.4117,2.4113,2.411,2.4113,2.41,2.4098,2.4097,2.4093,2.4092,2.411,2.411,2.411,2.411,0,2.4199,2.4191,2.4185,2.4177,2.4171,2.4163,2.4158,2.4153,2.4151,2.4147,2.4136,2.4128,2.4118,2.4114,2.4112,2.4099,2.41,2.4101,2.4104,2.4096,2.4092,2.409,2.411,2.411,2.411,2.411,0,0,2.4186,2.4177,2.4175,2.4171,2.4163,2.4157,2.4148,2.4139,2.4135,2.4127,2.412,2.4107,2.4107,2.4101,2.4098,2.4092,2.4083,2.4093,2.4093,2.4092,2.4069,2.4069,2.4067,2.4083,2.4082,2.4082,2.407,0,2.4174,2.416,2.4158,2.4145,2.4138,2.4138,2.413,2.4124,2.412,2.4113,2.4108,2.4099,2.4101,2.4097,2.4091,2.4086,2.4079,2.4087,2.4074,2.4074,2.4077,2.4065,2.4064,2.4054,2.4069,2.4068,2.4068,0,2.4159,2.4153,2.414,2.4133,2.413,2.4124,2.4116,2.4109,2.4102,2.4099,2.4093,2.4091,2.4082,2.4085,2.4072,2.4077,2.4072,2.4068,2.4068,2.4066,2.407,2.4063,2.405,2.4049,2.4066,2.4066,2.4066,0,2.415,2.4139,2.413,2.4127,2.4119,2.4114,2.4111,2.4104,2.4099,2.4092,2.4088,2.408,2.4075,2.4067,2.4063,2.4066,2.405,2.4053,2.4047,2.4047,2.4043,2.4043,2.4029,2.404,2.404,2.404,2.404,0,2.4138,2.413,2.4126,2.4121,2.4112,2.4109,2.41,2.4096,2.409,2.4083,2.4082,2.4075,2.407,2.4062,2.4058,2.4048,2.4045,2.4043,2.4042,2.4043,2.4043,2.4039,2.404,2.404,2.404,2.404,2.404,0,2.4127,2.4124,2.4114,2.4109,2.4107,2.41,2.4095,2.4089,2.4086,2.4077,2.4075,2.4069,2.406,2.4055,2.4043,2.4041,2.4029,2.4028,2.4032,2.4031,2.4026,2.4026,2.4008,2.4006,2.4018,2.4018,2.4018,0,2.4119,2.4113,2.4107,2.4103,2.4099,2.4093,2.4088,2.4085,2.408,2.4072,2.4067,2.4059,2.4052,2.4037,2.4031,2.4022,2.4021,2.4016,2.402,2.4021,2.4021,2.4022,2.4021,2.4015,2.4015,2.4014,2.4014,0,2.4105,2.4104,2.4098,2.4092,2.4087,2.4081,2.4076,2.4072,2.4069,2.4063,2.4055,2.4049,2.4038,2.4029,2.402,2.4015,2.4014,2.4013,2.4011,2.4012,2.4015,2.4013,2.4029,2.4014,2.4014,2.4014,2.4014,2.4014,2.4095,2.409,2.4085,2.4079,2.4075,2.407,2.4064,2.4061,2.4054,2.4046,2.4044,2.4035,2.4029,2.4017,2.4012,2.4004,2.4005,2.4002,2.4001,2.4001,2.4001,2.4016,2.4002,2.4002,2.4002,2.4002,2.4002,0,2.4081,2.4078,2.4072,2.4065,2.406,2.4061,2.4055,2.4051,2.4043,2.4038,2.4031,2.4021,2.4013,2.4007,2.3999,2.3994,2.3993,2.3991,2.3991,2.399,2.4,2.4003,2.3992,2.3992,2.3992,2.3992,2.3992,2.3992,2.4073,2.4065,2.4063,2.4053,2.405,2.4042,2.4039,2.4034,2.403,2.402,2.4013,2.401,2.4004,2.3995,2.3987,2.3986,2.3983,2.3981,2.3979,2.3989,2.399,2.3991,2.3993,2.3981,2.3981,2.397,2.397,2.397]}]]